Tracking 19146 objects as of 23-Apr-2018
HD Live streaming from Space Station
objects crossing your sky now

METEOR 1-21

Track METEOR 1-21 now!
10-day predictions
METEOR 1-21 is classified as:


NORAD ID: 7714
Int'l Code: 1975-023A
Perigee: 849.0 km
Apogee: 897.8 km
Inclination: 81.2 °
Period: 102.3 minutes
Semi major axis: 7244 km
RCS: 4.3419 m2 (large)
Launch date: April 1, 1975
Source: Commonwealth of Independent States (former USSR) (CIS)
Launch site: PLESETSK MISSILE AND SPACE COMPLEX (PKMTR)
aabbcc
Your satellite tracking list
Your tracking list is empty




NASA's NSSDC Master Catalog

Two Line Element Set (TLE):
1 07714U 75023A   18112.84777527  .00000192  00000-0  10503-3 0  9990
2 07714  81.2108 250.1205 0033693 100.7057 259.7909 14.07979935528763
Source of the keplerian elements: AFSPC